Location: Waldport
(44.4270°N, 124.0680°W)
Time: 18:52:18
(UTC-07:00)

ISS - Pass Details

Date: 26 February 2019
Orbit: 406 x 411 km, 51.6° (Epoch: 19 March)

Event Time Altitude Azimuth Distance (km) Brightness Sun altitude
Exits shadow 05:50:51 18° 234° (SW) 1,062 -2.2 -12.9°
Maximum altitude 05:53:08 82° 147° (SSE) 414 -3.8 -12.5°
Drops below altitude 10° 05:56:25 10° 61° (ENE) 1,469 0.0 -11.9°
Sets 05:58:31 0° 60° (ENE) 2,333 1.1 -11.5°
